RH
83 87 86 99 98 89 86 80 76 90 83 70 63 56 40 27 25 26 26 24 22 21 20 20 18 17 18 19 20 22 25 27 37 46 57 63 54 51 45 42 45 50 52
99 99 98 99 91 100 94 86 82 83 87 81 77 70 59 43 33 31 31 29 26 24 23 22 21 19 18 18 19 20 24 26 30 40 53 65 70 60 55 52 51 54 56
84 93 71 60 61 62 92 94 88 85 88 79 76 77 60 44 38 41 41 41 34 29 26 24 23 21 18 18 19 20 22 24 24 32 40 48 59 59 65 63 62 61 60
84 70 62 64 84 74 81 75 88 84 87 91 76 79 77 65 55 56 57 60 52 38 31 27 25 23 19 17 19 21 22 22 22 24 25 27 41 43 68 69 69 66 65
39 88 100 97 83 80 74 73 82 92 84 97 81 78 78 72 59 61 60 68 64 58 42 32 27 25 21 18 18 21 22 23 25 25 26 27 28 30 40 65 72 72 69
45 44 71 86 97 80 80 74 78 81 76 91 88 79 81 75 64 62 65 70 69 66 57 40 29 27 24 19 17 20 24 26 27 27 27 28 29 31 38 46 62 62 65
40 56 80 97 87 84 81 77 73 74 67 67 92 84 81 73 60 61 70 68 69 70 69 52 31 28 26 22 19 22 25 28 29 30 30 30 31 34 39 42 45 54 74
50 57 61 67 74 77 78 74 72 72 70 74 91 86 78 73 69 64 65 65 69 70 71 66 34 30 28 23 20 25 27 29 30 31 31 32 34 36 37 41 42 54 68
35 51 61 57 74 73 70 80 75 75 67 77 88 80 69 70 71 68 71 70 70 71 73 69 35 30 29 23 21 26 28 29 31 33 34 36 36 39 41 44 47 50 57
30 37 52 57 72 74 55 69 73 73 77 68 86 76 82 68 74 71 73 75 71 72 73 74 38 33 31 23 23 27 28 28 30 32 35 36 40 43 43 46 45 45 51
33 29 41 50 53 75 87 74 78 68 70 75 73 82 70 80 80 72 72 73 73 72 72 77 41 34 31 25 23 27 28 27 30 34 37 40 44 48 50 49 45 44 47
26 34 32 44 74 93 97 73 67 76 65 65 71 68 68 84 84 74 82 74 74 76 74 78 46 35 32 28 22 26 25 28 28 30 37 40 42 48 51 50 49 50 52
30 23 34 46 76 92 90 77 64 63 76 74 77 83 78 81 87 81 82 80 79 76 76 80 50 36 35 29 23 25 25 26 29 30 31 38 39 42 44 47 50 56 58
31 25 20 22 32 90 91 86 67 72 87 100 100 99 93 82 91 92 90 87 82 80 80 81 55 39 39 29 24 25 24 25 26 31 31 33 34 35 35 38 43 51 56
30 31 24 20 22 24 44 74 69 84 92 92 95 97 97 95 98 94 97 96 89 83 82 82 58 45 42 28 24 25 25 23 26 29 31 30 31 32 30 34 38 41 42
33 34 29 27 22 23 30 43 81 79 89 100 100 100 91 96 100 84 99 100 94 87 86 84 59 47 41 27 26 26 24 24 26 26 26 28 28 28 28 31 36 42 41
30 31 29 26 23 22 32 36 37 83 100 99 100 100 100 100 95 97 100 100 97 90 88 85 64 48 40 27 29 30 27 25 25 25 26 26 26 26 28 32 36 36 32
29 28 27 27 26 26 28 38 48 47 71 99 100 100 100 100 100 100 100 86 98 96 95 88 72 52 36 30 28 27 26 27 26 28 27 26 24 26 29 28 28 19 11
31 31 31 32 34 32 33 41 58 78 88 86 95 99 99 96 92 92 99 99 100 100 97 87 67 61 40 38 34 29 30 27 28 30 28 28 29 28 26 23 14 11 11
42 42 40 40 43 43 46 50 54 61 75 88 92 95 95 87 82 81 93 98 99 98 96 84 63 64 44 40 35 28 32 31 30 31 30 31 30 27 22 13 9 10 10
41 43 43 43 45 46 48 51 53 57 66 74 83 90 94 90 86 87 94 96 97 92 83 76 68 68 50 41 36 34 30 32 30 28 27 27 27 23 19 11 10 10 11
43 44 38 38 40 41 44 45 50 55 59 62 67 75 82 86 88 89 89 88 88 82 78 76 65 53 48 46 42 36 36 36 32 26 24 23 21 20 15 12 12 12 11
43 44 42 39 39 40 40 41 43 48 52 55 59 63 67 70 74 80 84 85 86 76 75 76 69 54 50 49 46 43 42 39 34 27 22 20 19 16 14 14 14 13 12
45 44 44 40 41 42 42 40 40 39 43 50 56 61 63 65 68 71 74 76 76 78 74 67 57 55 53 49 44 45 51 43 30 22 23 22 18 17 16 17 17 22 26
53 51 49 50 53 52 48 46 45 44 44 51 60 66 67 66 67 68 71 71 70 69 64 59 55 52 49 45 48 47 45 34 23 19 29 46 26 29 26 24 30 58 24
63 60 60 61 62 60 57 54 52 51 51 54 62 67 68 68 68 69 71 72 71 72 71 68 67 64 60 59 55 51 44 34 24 39 82 34 34 31 27 35 61 78 34
Wind_Speed
31 29 36 42 38 38 36 34 33 31 32 30 28 26 24 22 20 18 16 14 13 11 10 8 7 6 6 7 7 8 7 8 10 10 9 7 6 4 5 4 4 4 4
28 37 40 29 23 30 36 36 34 31 33 31 27 26 24 23 21 19 18 15 14 13 11 10 9 7 8 8 8 8 8 8 11 9 10 8 7 5 5 5 5 3 3
37 39 38 35 29 29 33 37 33 35 34 33 31 29 29 27 24 23 20 18 16 15 13 12 11 10 9 9 9 9 9 9 10 12 7 6 6 11 8 5 3 2 1
35 45 41 40 43 45 35 35 40 40 37 37 36 34 32 30 24 23 22 19 17 16 15 14 13 12 11 11 10 10 10 10 10 11 11 9 6 7 9 9 5 3 2
30 36 41 47 46 46 46 41 37 41 41 40 39 38 35 31 26 27 23 21 19 18 18 17 16 14 13 13 12 11 11 11 11 11 10 9 8 9 7 9 10 7 5
34 34 36 38 46 51 50 43 38 44 41 41 40 41 36 33 31 28 27 23 19 19 20 19 18 16 15 15 14 13 12 12 12 11 11 10 9 9 8 7 10 8 8
34 37 38 40 43 51 51 45 37 40 44 44 50 47 43 36 31 32 28 27 22 21 21 20 19 17 16 16 16 15 14 13 13 12 12 11 10 9 9 9 10 9 9
28 37 36 37 40 49 54 51 50 39 44 47 54 49 47 43 39 35 31 28 24 20 20 19 19 18 19 18 17 16 15 15 14 14 13 12 11 10 9 9 9 9 12
20 32 37 38 40 41 43 55 57 49 47 48 50 53 47 44 42 39 33 28 25 22 21 21 20 20 20 19 18 17 16 16 15 15 14 13 12 11 10 9 8 10 12
16 23 32 39 41 41 40 42 43 56 56 55 54 51 52 50 46 42 36 32 28 26 24 23 21 21 21 20 19 18 18 17 17 15 15 14 13 12 11 9 8 9 10
16 18 22 31 38 42 42 44 47 50 53 55 53 53 48 51 50 43 38 35 32 28 26 24 23 23 21 21 20 20 19 19 17 16 15 14 14 13 11 9 8 6 7
19 15 15 17 25 34 40 42 44 55 55 55 55 55 55 50 49 47 44 36 35 31 29 27 26 23 23 22 21 21 20 20 18 16 16 16 15 15 13 12 10 8 7
22 18 13 10 18 25 32 35 35 38 52 63 62 59 55 54 56 54 47 44 39 35 33 29 28 25 25 23 22 21 21 20 18 17 16 16 16 15 14 13 12 11 10
16 13 15 10 8 18 25 30 31 31 35 43 51 55 54 55 51 50 52 49 43 38 35 32 29 27 26 24 23 23 22 21 19 19 18 17 16 15 13 14 13 13 12
19 16 16 16 12 12 17 23 26 29 32 35 39 45 44 45 46 45 52 49 43 39 36 32 30 29 27 26 24 24 23 22 21 21 19 17 16 15 14 14 13 14 13
24 22 17 17 18 19 17 19 22 27 28 31 33 36 38 47 41 39 48 41 42 39 36 33 32 31 30 26 24 24 24 23 22 21 20 18 18 16 15 14 14 12 12
14 16 13 12 13 15 15 15 17 17 20 25 26 28 31 29 26 32 35 35 38 38 37 33 35 33 30 25 25 25 25 23 22 21 20 19 18 17 15 14 14 13 13
8 7 9 10 11 13 15 13 12 13 14 13 17 19 21 22 23 23 26 24 34 38 37 35 36 30 29 26 28 27 25 23 22 22 20 19 18 17 16 15 15 14 14
7 6 7 8 8 10 11 10 9 10 12 13 13 13 15 17 18 21 26 30 35 36 36 33 33 31 29 28 28 27 27 26 24 23 22 20 19 17 17 17 16 16 15
4 3 3 3 4 3 4 4 4 5 7 9 10 12 14 17 19 22 23 26 29 33 33 34 32 29 28 29 29 28 28 27 26 25 23 22 20 19 18 17 17 17 16
10 8 7 7 6 4 5 4 4 4 1 5 7 10 11 14 16 18 21 23 27 29 31 32 31 28 27 29 30 29 28 29 27 26 26 24 22 21 19 18 18 16 16
11 11 10 10 9 7 5 5 6 3 1 2 4 7 10 12 14 16 17 20 23 27 29 28 27 27 28 28 28 29 28 27 27 27 24 23 21 21 20 19 18 18 18
12 11 11 11 10 8 7 5 2 2 4 3 3 4 7 10 12 14 16 18 21 25 27 27 27 29 30 29 29 29 28 28 27 25 22 20 21 20 21 20 19 19 20
12 10 9 11 9 8 6 5 5 4 4 4 5 6 6 7 10 12 14 16 19 23 25 26 27 28 29 30 32 32 31 28 27 25 21 19 21 24 23 22 22 19 23
11 10 11 11 10 9 7 6 5 6 6 5 5 7 7 7 8 10 12 13 16 18 21 23 27 29 31 32 31 32 32 31 28 24 20 22 29 28 27 25 21 23 26
11 11 11 10 11 9 8 7 7 7 5 5 3 4 5 5 6 7 8 11 13 15 17 19 21 22 24 26 27 29 28 27 25 24 25 31 31 30 29 26 21 26 28
Wind_Direction
210 207 203 202 209 199 200 197 204 208 202 200 200 203 203 202 202 204 208 210 213 213 215 218 220 216 208 202 196 191 182 174 174 172 160 147 143 117 129 131 110 91 65
193 195 199 197 222 212 202 205 208 217 210 206 210 213 208 207 207 206 209 214 218 220 222 225 226 226 222 217 211 203 200 190 187 189 181 177 182 168 153 147 139 116 62
202 196 202 221 263 236 223 215 214 216 214 212 213 215 213 213 208 208 210 217 222 224 227 229 232 232 229 226 222 215 211 212 200 197 199 179 186 173 182 184 175 154 49
213 215 212 205 208 214 216 221 220 214 215 214 217 221 222 219 217 224 222 218 223 229 232 233 234 234 233 232 229 225 222 220 218 207 215 221 189 181 181 205 200 206 259
222 214 204 208 211 212 214 216 214 213 217 216 223 223 223 227 223 226 217 217 222 228 234 235 236 236 236 234 235 232 229 228 225 221 220 214 205 203 188 192 204 226 236
226 226 225 221 218 217 214 214 225 219 222 228 223 228 228 226 227 227 221 220 225 234 237 236 235 235 236 236 237 236 235 232 231 230 229 228 224 219 205 187 187 209 224
225 225 221 220 221 216 214 214 211 216 220 234 234 225 227 227 228 231 225 226 230 241 242 240 238 239 239 238 239 238 237 239 238 236 237 235 232 230 224 218 197 198 194
234 229 225 223 225 223 222 215 218 211 198 208 217 221 224 226 228 229 231 233 235 246 241 243 241 239 238 239 240 240 238 238 240 242 241 236 234 233 230 226 216 200 207
238 231 230 230 227 228 228 223 223 216 212 216 214 219 223 226 228 229 228 230 232 237 235 240 239 237 238 240 241 241 241 242 241 243 243 242 238 234 236 236 227 221 213
259 242 235 234 234 234 234 228 223 214 216 214 219 221 223 226 226 229 227 228 232 231 235 239 238 237 236 238 242 240 240 241 242 241 240 240 239 234 232 239 238 236 222
327 253 246 244 242 239 233 233 227 220 221 224 225 226 226 227 225 227 229 231 231 235 237 241 240 238 237 239 240 241 240 239 238 239 238 236 236 236 232 232 233 220 218
342 320 267 258 244 232 229 233 235 227 224 223 228 231 233 234 229 225 229 230 232 238 240 240 237 236 237 238 241 242 242 241 236 235 236 232 230 231 231 232 234 230 232
315 302 298 287 250 240 235 236 238 240 234 229 234 237 234 232 230 228 228 225 228 232 236 233 234 237 237 238 238 238 239 239 238 233 230 233 231 228 231 235 233 234 240
299 275 285 280 281 245 241 242 242 243 242 236 236 236 236 235 232 234 231 229 226 227 230 233 235 237 237 238 237 236 235 234 232 234 226 227 229 229 231 232 231 234 236
285 279 255 271 275 256 248 241 246 246 242 242 240 238 236 236 235 236 235 231 228 227 230 234 233 235 234 235 234 235 233 231 229 228 226 226 226 226 227 230 233 234 232
271 269 266 250 272 277 260 247 239 241 245 242 242 238 239 239 234 251 245 231 228 227 228 229 231 234 234 235 233 231 231 230 228 229 227 225 226 227 225 224 225 228 232
282 263 239 251 261 265 265 259 255 242 239 236 235 235 235 238 239 237 231 229 227 225 224 227 231 231 234 232 232 227 228 226 227 227 227 228 227 226 224 219 220 222 225
247 241 245 252 256 260 267 254 240 240 235 231 232 231 230 228 223 227 227 240 230 225 227 227 229 231 232 226 230 225 224 224 224 228 229 230 230 226 223 221 222 220 220
253 249 228 232 251 256 256 253 242 224 217 217 224 230 231 234 238 239 234 232 230 228 226 228 226 229 228 232 226 223 222 220 221 225 225 226 226 225 224 222 220 218 217
152 174 183 179 195 203 205 218 227 231 238 233 225 227 233 235 240 243 240 234 231 234 230 229 223 229 229 224 227 223 223 223 222 223 224 225 224 225 225 223 221 221 221
82 84 101 106 107 105 107 108 87 71 179 218 225 228 233 236 238 241 242 241 239 233 228 226 226 227 225 225 227 223 223 225 225 225 226 226 223 224 223 222 223 224 222
80 75 85 83 80 82 93 104 110 101 108 211 228 235 239 241 243 242 243 242 240 236 233 230 229 229 224 223 226 227 227 227 228 231 230 232 229 226 224 223 221 220 222
75 63 62 66 58 54 56 58 69 261 250 248 255 255 250 247 247 245 241 237 234 230 230 231 235 229 224 223 225 225 228 228 228 230 233 231 230 228 225 222 221 224 229
62 51 45 49 46 36 24 14 355 335 312 271 245 240 257 263 251 243 239 237 236 235 236 234 233 233 231 229 227 225 225 226 226 226 223 223 230 229 227 221 219 232 247
50 38 35 36 41 35 20 0 339 321 304 285 254 244 245 253 261 254 249 248 247 247 250 247 243 240 236 234 231 229 227 227 226 222 219 232 229 224 221 222 230 248 244
54 52 52 50 46 39 33 27 20 7 340 306 273 245 249 256 260 260 255 249 247 246 250 251 249 253 251 246 241 237 234 231 227 223 230 229 227 227 225 225 241 252 248